#timestamp,LO_Frequency,Hit,StdDev 
1552680015.1,286047001.0,N
1552680035.8,286047001.2,N
1552680055.7,286047001.1,N
1552680075.5,286047000.7,N
1552680095.3,286046998.6,N
1552680115.2,286046999.0,N
1552680135.0,286046998.4,N
1552680135.9,286046998.4,N
1552680155.8,286046998.2,N
1552680175.6,286046996.6,N
1552680195.4,286046997.4,N
1552680215.3,286046997.3,N
1552680235.1,286046997.3,N
1552680255.8,286046999.0,N
1552680275.7,286046998.9,N
1552680295.5,286046999.1,N
1552680315.4,286046999.2,N
1552680335.2,286046998.9,N
1552680355.0,286046999.7,N
1552680355.9,286046999.7,N
1552680375.8,286046998.2,N
1552680395.6,286046998.7,N
1552680415.4,286046998.1,N
1552680435.3,286046998.2,N
1552680455.1,286046998.3,N
1552680475.9,286047000.5,N
1552680495.7,286047001.1,N
1552680515.5,286047001.1,N
1552680535.4,286046999.9,N
1552680555.2,286047000.9,N
1552680575.0,286047000.3,N
1552680575.9,286047000.3,N
1552680595.8,286047000.7,N
1552680615.6,286047000.6,N
1552680635.5,286047000.5,N
1552680655.3,286047000.4,N
1552680675.1,286047002.3,N
1552680695.9,286047002.1,N
1552680715.7,286047002.1,N
1552680735.5,286047002.1,N
1552680755.4,286047001.9,N
1552680775.2,286047000.2,N
1552680795.1,286047000.4,N
1552680796.0,286047000.4,N
1552680815.8,286047000.4,N
1552680835.6,286047002.7,N
1552680855.5,286047000.3,N
1552680875.3,286047000.8,N
1552680895.1,286046999.0,N
1552680915.9,286046999.6,N
1552680935.7,286046999.3,N
1552680955.6,286046999.1,N
1552680975.4,286046999.2,N
1552680995.2,286046998.7,N
1552681015.1,286046999.0,N
1552681016.0,286046999.0,N
1552681035.8,286046998.6,N
1552681055.6,286046999.2,N
1552681075.5,286046996.6,Y
1552681095.3,286046999.2,P
1552681115.1,286046999.6,N
1552681135.9,286046998.8,N
1552681155.7,286046998.9,N
1552681175.6,286046996.6,Y
1552681195.4,286046999.5,P
1552681215.2,286046999.3,P
1552681235.1,286046998.6,P
1552681236.0,286046998.6,Y
1552681255.8,286046998.8,P
1552681275.7,286047002.3,P
1552681295.5,286047002.5,N
1552681315.3,286047000.6,N
1552681335.2,286047000.4,N
1552681355.9,286046998.1,N
1552681375.7,286046998.7,N
1552681395.6,286046999.3,N
1552681415.4,286046998.6,N
1552681435.2,286046999.4,N
1552681455.1,286046998.9,N
1552681456.0,286046998.9,N
1552681475.8,286046997.2,N
1552681495.7,286046995.0,Y
1552681515.5,286046995.7,P
1552681535.3,286046995.5,N
1552681555.2,286046995.8,N
1552681575.0,286046995.8,N
1552681575.9,286046995.8,N
1552681595.7,286046995.0,Y
1552681615.6,286046998.1,P
1552681635.4,286047000.6,N
1552681655.3,286047000.1,N
1552681675.1,286047002.7,N
1552681676.0,286047002.7,N
1552681695.8,286047002.7,N
1552681715.7,286047002.5,N
1552681735.5,286047001.4,N
1552681755.3,286047004.3,N
1552681775.2,286047002.1,N
1552681795.0,286047004.3,N
1552681795.9,286047004.3,N
1552681815.8,286047004.0,N
1552681835.6,286047001.8,N
1552681855.4,286047003.7,N
1552681875.3,286047004.1,N
1552681895.1,286047001.4,N
1552681915.8,286047002.0,N
1552681935.7,286047002.1,N
1552681955.5,286047000.2,N
1552681975.3,286046999.8,N
1552681995.2,286047000.7,N
1552682015.0,286047000.3,N
1552682015.9,286047000.3,N
1552682035.8,286046999.9,N
1552682055.6,286047002.8,N
1552682075.4,286047002.6,N
1552682095.3,286047001.7,N
1552682115.1,286047002.0,N
1552682135.8,286047000.3,N
1552682155.7,286046999.8,N
1552682175.5,286047000.5,N
1552682195.4,286047000.8,N
1552682215.2,286047000.2,N
1552682235.0,286047000.0,N
1552682235.9,286047000.0,N
1552682255.8,286046998.1,N
1552682275.6,286046998.6,N
1552682295.4,286046999.6,N
1552682315.3,286046998.6,N
1552682335.1,286046998.2,N
1552682355.9,286046999.9,N
1552682375.7,286047000.5,N
1552682395.5,286047001.0,N
1552682415.4,286047002.3,N
1552682435.2,286047000.3,N
1552682455.0,286047000.8,N
1552682456.0,286047000.8,N
1552682475.8,286046998.1,N
1552682495.6,286046998.7,N
1552682515.5,286046999.0,N
1552682535.3,286046998.6,N
1552682555.1,286046999.6,N
1552682575.9,286046997.4,N
1552682595.7,286046997.6,N
1552682615.6,286046997.2,N
1552682635.4,286046997.0,N
1552682655.2,286046996.5,N
1552682675.1,286046997.1,N
1552682676.0,286046997.1,N
1552682695.8,286046998.7,N
1552682715.6,286046998.7,N
1552682735.5,286047000.3,N
1552682755.3,286046998.7,N
1552682775.2,286046996.6,N
1552682795.9,286046999.5,N
1552682815.7,286046999.6,N
1552682835.6,286046999.6,N
1552682855.4,286046999.0,N
1552682875.2,286046997.8,N
1552682895.1,286046995.3,Y
1552682896.0,286046995.3,P
1552682915.8,286046996.9,N
1552682935.7,286046999.3,N
1552682955.5,286047001.0,N
1552682975.3,286046999.9,N
1552682995.2,286047000.9,N
1552683015.0,286047000.0,N
1552683015.9,286047000.0,N
1552683035.8,286047001.9,N
1552683055.6,286047002.6,N
1552683075.4,286047000.2,N
1552683095.3,286046999.4,N
1552683115.1,286046998.3,N
1552683135.8,286047000.8,N
1552683155.7,286047001.1,N
1552683175.5,286046999.1,N
1552683195.4,286046998.2,N
1552683215.2,286047000.2,N
1552683235.0,286047000.4,N
1552683235.9,286047000.4,N
1552683255.8,286047000.0,N
1552683275.6,286047000.0,N
1552683295.4,286047000.1,N
1552683315.3,286046999.7,N
1552683335.1,286047000.8,N
1552683355.9,286046998.3,N
1552683375.7,286046999.0,N
1552683395.5,286046999.4,N
1552683415.4,286046998.9,N
1552683435.2,286046998.2,N
1552683455.0,286046998.7,N
1552683455.9,286046998.7,N
1552683475.8,286047000.7,N
1552683495.6,286046996.7,Y
1552683515.5,286046997.4,P
1552683535.3,286046997.5,N
1552683555.1,286046996.7,N
1552683575.9,286046999.1,N
1552683595.7,286046999.6,N
